User: anonymous   Login
Location: Unspecified
(0.0000°N, 0.0000°E)
Time: 09:06:00
(UTC+00:00)
Language:

EO-1 - Orbit

View from above orbital plane
View from above orbital plane
View from above satellite
View from above satellite

Ground track
Ground track

The orbit data is extracted from the following two-line orbital elements,

1 26619U 00075A   18018.49001013 -.00000262 +00000-0 -41052-4 0  9990
2 26619 097.8184 042.2202 0010702 138.8628 221.3379 14.64426073915044
Epoch (UTC): 18 January 2018 11:45:36
Eccentricity: 0.0010702
inclination: 97.8184°
perigee height: 671 km
apogee height: 686 km
right ascension of ascending node: 42.2202°
argument of perigee: 138.8628°
revolutions per day: 14.64426073
mean anomaly at epoch: 221.3379°
orbit number at epoch: 91504

The dashed part of the orbit path shows where the satellite is in the earth's shadow,  

DLR